Regional Weather Roundup
Issued by NWS Upton, NY

Current Version | Previous Version | Text Only | Print | Product List | Glossary On
Versions: 1 2 3 4 5 6 7 8 9 10 11 12 13 14 15 16 17 18 19 20 21 22 23 24 25 26 27 28 29 30 31 32 33 34 35 36 37 38 39 40 41 42 43 44 45 46 47 48 49 50
000 ASUS41 KOKX 200805 RWROKX REGIONAL WEATHER ROUNDUP NATIONAL WEATHER SERVICE NEW YORK NY 400 AM EDT MON OCT 20 2014 NOTE: "FAIR" INDICATES FEW OR NO CLOUDS BELOW 12,000 FEET WITH NO SIGNIFICANT WEATHER AND/OR OBSTRUCTIONS TO VISIBILITY. NYZ071-072-176-178-NJZ106-104-200900- NEW YORK CITY METRO AREA CITY SKY/WX TMP DP RH WIND PRES REMARKS CENTRAL PARK PTCLDY 43 28 55 VRB3 30.10S LAGUARDIA APRT MOCLDY 44 29 55 W9 30.08S KENNEDY INTL MOCLDY 44 27 51 W8 30.09S NEWARK/LIBERTY MOCLDY 40 29 64 W8 30.09F WCI 34 BRNX BOT. GARD N/A N/A N/A N/A S3 30.09R TETERBORO PTCLDY 39 28 64 SW6 30.08S WCI 35 $$ NYZ177-179-078>081-200900- LONG ISLAND NEW YORK CITY SKY/WX TMP DP RH WIND PRES REMARKS FARMINGDALE PTCLDY 39 30 70 CALM 30.08S ISLIP PTCLDY 36 29 75 W3 30.05F SHIRLEY NOT AVBL WESTHAMPTON CLEAR 31 24 75 CALM 30.08S MONTAUK POINT N/A 44 27 51 N9 30.06R $$ NYZ052-065-067-200900- HUDSON VALLEY CITY SKY/WX TMP DP RH WIND PRES REMARKS WHITE PLAINS MOCLDY 36 30 79 CALM 30.05R NEWBURGH NOT AVBL MONTGOMERY MOCLDY 35 28 75 W10 30.06R WCI 27 POUGHKEEPSIE PTCLDY 34 30 85 CALM 30.06R ALBANY MOCLDY 35 29 78 CALM 30.04S $$ NJZ001-105-106-008-010-013-015-019>022-104-200900- NEW JERSEY CITY SKY/WX TMP DP RH WIND PRES REMARKS NEWARK/LIBERTY MOCLDY 40 29 64 W8 30.09F WCI 34 TETERBORO PTCLDY 39 28 64 SW6 30.08S WCI 35 CALDWELL MOCLDY 36 28 73 S3 30.09S MORRISTOWN MOCLDY 37 32 81 CALM 30.09S SOMERVILLE MOCLDY 33 30 88 CALM 30.08F SUSSEX CLOUDY 34 30 85 CALM 30.08R ANDOVER N/A 33 29 85 CALM 30.08S TRENTON PTCLDY 34 31 88 CALM 30.09S MILLVILLE PTCLDY 34 33 96 CALM 30.11S ATLANTIC CITY PTCLDY 33 30 88 CALM 30.12S WRIGHTSTOWN CLEAR 33 30 89 S1 30.08F TOMS RIVER PTCLDY 28 27 93 CALM 30.11S BELMAR PTCLDY 37 27 65 W3 30.09S $$ PAZ047>061-062-071-200900- EASTERN PENNSYLVANIA CITY SKY/WX TMP DP RH WIND PRES REMARKS PHILADELPHIA PTCLDY 42 32 67 CALM 30.11F ALLENTOWN CLOUDY 37 31 78 CALM 30.09S SCRANTON CLOUDY 33 29 85 CALM 30.05S $$ CTZ002-004>006-009-010-012-RIZ004-006-007-MAZ004-011-015-200900- SOUTHERN NEW ENGLAND IN CT CITY SKY/WX TMP DP RH WIND PRES REMARKS BRADLEY INTL PTCLDY 34 27 75 CALM 30.03R HARTFORD CLEAR 37 28 70 SW3 30.04S DANBURY MOCLDY 33 29 85 CALM 30.06R WTRBRY/OXFORD PTCLDY 32 25 74 CALM 30.04R BRIDGEPORT PTCLDY 40 30 67 NW3 30.06S MERIDEN PTCLDY 32 29 88 CALM 30.05S NEW HAVEN PTCLDY 44 30 57 W5 30.06S CHESTER FAIR 36 30 80 SW5 30.05R WCI 32 GROTON PTCLDY 36 29 75 CALM 30.05R WILLIMANTIC PTCLDY 32 29 88 CALM 30.03S IN RI CITY SKY/WX TMP DP RH WIND PRES REMARKS PROVIDENCE PTCLDY 37 26 64 W5 30.02F WCI 33 BLOCK ISLAND PTCLDY 43 25 49 NW10 30.03S WESTERLY PTCLDY 35 29 78 W3 30.05R IN MA CITY SKY/WX TMP DP RH WIND PRES REMARKS BOSTON PTCLDY 40 25 55 NW12 30.00R WCI 33 WORCESTER CLOUDY 33 25 72 NW5 29.97F WCI 29 WESTFIELD MOCLDY 31 28 89 S3 30.02S PROVINCETOWN CLEAR 45 28 53 NW18G24 29.98R NANTUCKET PTCLDY 44 27 51 NW12 29.99R $$ ANZ330-335-338-340-345-350-353-355-200900- COASTAL MARINE OBSERVATIONS STATION/POSITION TIME SKY/WX TEMP WIND PRES VSBY WAVE AIR SEA DIR/SP/G HT/PER (UTC) (F) (DEG/KT/KT) (MB) (MI) (FT/S) NY HARB ENTRANCE NOT AVBL 4S FIRE IS 0800 64 N/A 2/12 20S FIRE ISLAND 0800 47 64 340/ 10/ 16 1018.4 3/ 5 23SW MTP 0800 N/A 4/ 4 HUDSON CANYON 0800 51 65 330/ 16/ 19 1017.8 5/ 7 EXECUTION ROCKS 0800 46 64 290/ 10/ 14 N/A WESTERN LI SOUND 0800 46 260/ 6/ 10 N/A 0 CENTRAL LI SOUND 0800 45 64 310/ 10/ 16 N/A 2/ 3 EASTERN LI SOUND 0700 44 64 310/ 10/ 14 N/A ROBBINS REEF 0800 43 290/ 10/ 12 1017.5 $$ >>>>>>>>>>>>>>>>>>>>>>>>>>>> KEY <<<<<<<<<<<<<<<<<<<<<<<<<<< > < > SKY/WX - SKY CONDITION/PRESENT WEATHER < > TMP - TEMPERATURE IN FAHRENHEIT < > DP - DEWPOINT IN FAHRENHEIT < > RH - RELATIVE HUMIDITY IN PERCENT < > WIND - DIRECTION AND SPEED IN MPH < > PRES - MEAN SEA LEVEL PRESSURE IN INCHES OF HG < > WCI - WIND CHILL INDEX < > VSB - VISIBILITY IN MILES < > HX - HEAT INDEX < > TC - TEMPERATURE IN CELSIUS < > VRB - VARIABLE WIND DIRECTION < > < >>>>>>>>>>>>>>>>>>>>>>>>>>>> KEY <<<<<<<<<<<<<<<<<<<<<<<<<<<

USA.gov is the U.S. government's official web portal to all federal, state and local government web resources and services.